Home > Weather > Khabarovsk > Past weeks

Flag for Russia Weather for the Past 2 Weeks in Khabarovsk, Russia

Now
28 °F

Light freezing rain. Ice fog.


Feels Like: 25 °F
Forecast: 8 / 29 °F
Wind: 3 mph from West

Location: Habarovsk

Current Time: Feb 12, 2016 at 6:09:34 PM

Latest Report: Feb 12, 2016 at 5:30 PM


Visibility: 2 mi

Pressure: 29.83 "Hg

Humidity: 100%

Dew point: 28 °F

Location of KhabarovskLocation

Historic Weather in Khabarovsk — Graph

°F

Khabarovsk Temperature Yesterday

Maximum temperature yesterday: 18 °F (at 2:30 PM)
Minimum temperature yesterday: -9 °F (at 5:00 AM)
Average temperature yesterday: 5 °F

High & Low Weather Summary for the Past Weeks

 TemperatureHumidityPressure
High28 °F (Feb 12, 4:30 PM)100% (Feb 12, 9:30 AM)30.39 "Hg (Feb 12, 9:30 AM)
Low-20 °F (Feb 8, 7:00 AM)41% (Jan 29, 1:00 PM)29.77 "Hg (Feb 4, 11:30 PM)
Average-2 °F63%30.09 "Hg
* Reported Jan 28 5:00 PM — Feb 12 5:00 PM, Khabarovsk, Weather by CustomWeather, © 2016

Note: Actual official high and low records may vary slightly from our data, if they occured in-between our weather recording intervals... More about our weather records

Advertising

Khabarovsk Weather History for the Previous 24 Hours

 ConditionsComfort  
Time TempWeatherWind HumidityBarometerVisibility
5:00 PM
Fri, Feb 12
28 °FLight freezing rain. Ice fog.6 mph100%29.83 "Hg1 mi
4:30 PM28 °FChilly.3 mph100%29.83 "Hg1 mi
4:00 PM27 °FChilly.3 mph100%29.83 "Hg1 mi
3:30 PM27 °FChilly.1 mph100%29.86 "Hg1 mi
3:00 PM25 °FCold.No wind100%29.86 "Hg1 mi
2:30 PM23 °FLight freezing rain. Ice fog.3 mph100%29.86 "Hg1 mi
2:00 PM21 °FLight freezing rain. Ice fog.3 mph100%29.86 "Hg2 mi
1:30 PM21 °FLight freezing rain. Ice fog.3 mph93%29.89 "Hg2 mi
1:00 PM19 °FSnow flurries. More clouds than sun.1 mph93%29.89 "Hg4 mi
12:30 PM19 °FPartly sunny.3 mph93%29.89 "HgN/A
12:00 PM19 °FPartly sunny.1 mph93%29.92 "HgN/A
11:30 AM21 °FSnow flurries. Overcast.1 mph93%29.92 "Hg4 mi
11:00 AM21 °FSnow flurries. Overcast.1 mph93%29.92 "HgN/A
10:30 AM19 °FSnow flurries. Overcast.No wind93%29.92 "Hg2 mi
10:00 AM18 °FSnow flurries. Overcast.1 mph93%29.95 "Hg1 mi
9:30 AM16 °FCold.3 mph100%29.95 "Hg1 mi
9:00 AM16 °FSnow flurries. Overcast.3 mph93%29.98 "Hg2 mi
7:00 AM16 °FSnow flurries. Passing clouds.1 mph93%29.98 "Hg1 mi
6:30 AM16 °FSnow flurries. Passing clouds.1 mph93%30.01 "Hg2 mi
6:00 AM14 °FCold.3 mph92%30.01 "Hg1 mi
5:30 AM12 °FCold.3 mph92%30.04 "Hg1 mi
5:00 AM12 °FSnow showers. Passing clouds.3 mph92%30.04 "Hg1 mi
4:30 AM12 °FSnow flurries. Passing clouds.3 mph85%30.07 "Hg2 mi
4:00 AM12 °FSnow showers. Passing clouds.1 mph79%30.09 "Hg1 mi
3:30 AM12 °FPassing clouds.3 mph67%30.09 "HgN/A
3:00 AM10 °FLight snow. Passing clouds.3 mph72%30.12 "Hg4 mi
2:30 AM9 °FClear.3 mph72%30.12 "Hg10 mi
2:00 AM9 °FClear.6 mph72%30.15 "Hg10 mi
1:30 AM7 °FClear.3 mph78%30.15 "Hg10 mi
1:00 AM7 °FClear.3 mph72%30.18 "Hg10 mi
12:30 AM7 °FClear.1 mph72%30.18 "Hg10 mi
12:00 AM7 °FClear.3 mph78%30.18 "Hg10 mi
11:30 PM
Thu, Feb 11
7 °FClear.1 mph72%30.21 "Hg10 mi
11:00 PM9 °FClear.1 mph66%30.21 "Hg10 mi
10:30 PM7 °FClear.1 mph72%30.21 "Hg10 mi
10:00 PM10 °FClear.3 mph61%30.21 "Hg10 mi
9:30 PM9 °FClear.3 mph66%30.24 "Hg10 mi
9:00 PM9 °FClear.3 mph66%30.24 "Hg10 mi
8:30 PM10 °FPassing clouds.3 mph67%30.27 "HgN/A
8:00 PM10 °FClear.3 mph67%30.27 "Hg10 mi
7:30 PM10 °FClear.3 mph67%30.27 "Hg10 mi
7:00 PM12 °FSunny.3 mph62%30.27 "Hg10 mi
6:30 PM12 °FSunny.6 mph62%30.27 "Hg10 mi
6:00 PM14 °FSunny.6 mph57%30.30 "Hg10 mi
Weather by CustomWeather, © 2016

See weather overviewHow to use our weather pages